1486350000.32,33272,9.88,72464.3,-7.91,-34.35,-36.07,0,*5B
1486350001.62,33273,9.88,72466.3,-7.91,-34.35,-36.25,0,*5A
1486350002.83,33274,9.88,72470.0,-7.93,-34.59,-36.31,0,*50
1486350004.06,33275,9.88,72470.0,-7.93,-34.47,-36.37,0,*58
1486350005.33,33276,9.88,72468.8,-7.91,-34.53,-36.07,0,*5F
1486350006.59,33277,9.88,72466.0,-7.93,-34.65,-36.37,0,*5A
1486350007.84,33278,9.88,72464.0,-7.93,-34.65,-36.37,0,*55
1486350009.08,33279,9.88,72466.3,-7.93,-34.59,-36.37,0,*5B
1486350010.34,33280,9.88,72470.5,-7.93,-34.65,-36.37,0,*52
1486350011.57,33281,9.88,72472.3,-7.93,-34.77,-36.49,0,*59
1486350012.83,33282,9.88,72470.0,-7.93,-34.65,-36.37,0,*50
1486350014.09,33283,9.88,72472.8,-7.93,-34.65,-36.49,0,*58
1486350015.35,33284,9.88,72474.5,-7.93,-34.83,-36.49,0,*57
1486350016.62,33285,9.88,72472.0,-7.91,-34.71,-36.25,0,*53
1486350017.83,33286,9.88,72474.3,-7.93,-34.59,-36.31,0,*5D
1486350019.12,33287,9.88,72476.8,-7.95,-34.83,-36.49,0,*52
1486350020.33,33288,9.88,72476.8,-7.93,-34.77,-36.31,0,*5F
1486350021.59,33289,9.88,72476.3,-7.93,-34.65,-36.13,0,*5D
1486350022.88,33290,9.88,72470.8,-7.95,-34.83,-36.49,0,*54
1486350024.14,33291,9.88,72472.5,-7.95,-34.77,-36.13,0,*51
1486350025.4,33292,9.88,72474.8,-7.95,-34.77,-36.37,0,*54
1486350026.66,33293,9.81,72470.3,-7.95,-34.83,-36.31,0,*58
1486350027.94,33294,9.88,72474.8,-7.95,-34.83,-36.37,0,*59
1486350029.22,33295,9.88,72478.0,-7.95,-34.83,-36.37,0,*58
1486350030.51,33296,9.88,72474.0,-7.95,-34.83,-36.37,0,*5B
1486350031.75,33297,9.88,72472.8,-7.97,-34.95,-36.43,0,*5C
1486350033.03,33298,9.88,72476.8,-7.95,-34.95,-36.37,0,*52
1486350034.31,33299,9.88,72474.8,-7.95,-34.95,-36.37,0,*53
1486350035.6,33300,9.88,72472.5,-7.95,-34.83,-36.37,0,*55
1486350036.83,33301,9.88,72476.0,-7.97,-34.83,-36.19,0,*5A
1486350038.06,33302,9.88,72478.0,-7.97,-34.71,-36.01,0,*5D
1486350039.31,33303,9.88,72474.8,-7.97,-34.65,-36.01,0,*59
1486350040.55,33304,9.88,72476.8,-7.97,-34.53,-36.01,0,*5B
1486350041.81,33305,9.88,72474.8,-7.97,-34.35,-35.65,0,*5B
1486350043.04,33306,9.88,72478.0,-7.95,-34.25,-35.59,0,*54
1486350044.27,33307,9.88,72474.3,-7.95,-34.25,-35.59,0,*55
1486350045.5,33308,9.88,72478.5,-7.95,-34.41,-35.59,0,*58
1486350046.76,33309,9.88,72476.8,-7.97,-34.35,-35.65,0,*57
1486350048.0,33310,9.88,72476.3,-7.95,-34.25,-35.59,0,*53
1486350049.26,33311,9.88,72472.8,-7.95,-34.13,-35.53,0,*5D
1486350050.51,33312,9.88,72470.3,-7.95,-34.25,-35.53,0,*5B
1486350051.72,33313,9.88,72472.3,-7.93,-34.25,-35.59,0,*56
1486350053.01,33314,9.88,72466.3,-7.91,-34.19,-35.53,0,*56
1486350054.26,33315,9.88,72460.3,-7.91,-34.41,-35.65,0,*5F
1486350055.48,33316,9.88,72464.0,-7.93,-34.77,-35.89,0,*59
1486350056.7,33317,9.88,72460.3,-7.93,-34.77,-35.89,0,*58
1486350057.94,33318,9.88,72460.5,-7.93,-34.95,-36.07,0,*5E
1486350059.17,33319,9.88,72456.3,-7.93,-35.01,-36.37,0,*50
1486350060.41,33320,9.88,72458.0,-7.93,-35.07,-36.31,0,*5A
1486350061.7,33321,9.88,72460.8,-7.95,-34.83,-35.95,0,*5D
1486350062.96,33322,9.88,72454.5,-7.95,-34.83,-36.07,0,*56
1486350064.17,33323,9.88,72460.0,-7.93,-35.01,-36.31,0,*5F
1486350065.41,33324,9.88,72464.5,-7.95,-35.01,-36.07,0,*5B
1486350066.7,33325,9.88,72466.8,-7.95,-34.95,-35.95,0,*5E
1486350067.94,33326,9.88,72468.0,-7.95,-35.01,-36.07,0,*59
1486350069.24,33327,9.88,72468.0,-7.95,-34.95,-35.95,0,*5C
1486350070.51,33328,9.88,72470.0,-7.95,-34.95,-35.89,0,*5E
1486350071.78,33329,9.88,72470.5,-7.95,-34.83,-35.89,0,*58
1486350073.05,33330,9.88,72472.0,-7.95,-35.01,-35.95,0,*56
1486350074.29,33331,9.88,72468.8,-7.95,-35.01,-36.07,0,*5F
1486350075.52,33332,9.88,72470.8,-7.95,-35.01,-36.07,0,*5C
1486350076.78,33333,9.88,72474.0,-7.95,-35.07,-36.07,0,*5B
1486350078.08,33334,9.88,72472.0,-7.95,-35.07,-35.95,0,*54
1486350079.34,33335,9.88,72470.5,-7.95,-35.07,-36.07,0,*5D
1486350080.57,33336,9.88,72472.8,-7.97,-35.13,-36.13,0,*5C
1486350081.8,33337,9.88,72468.5,-7.95,-35.01,-36.07,0,*59
1486350083.09,33338,9.88,72470.5,-7.95,-35.07,-36.13,0,*55
1486350084.38,33339,9.88,72470.5,-7.95,-35.07,-36.13,0,*54
1486350085.61,33340,9.88,72470.5,-7.95,-35.17,-36.31,0,*5B
1486350086.81,33341,9.88,72470.3,-7.97,-35.13,-36.19,0,*56
1486350088.11,33342,9.88,72472.5,-7.95,-35.07,-35.95,0,*55
1486350089.36,33343,9.88,72470.3,-7.97,-35.23,-36.13,0,*5D
1486350090.6,33344,9.88,72470.3,-7.97,-35.29,-36.37,0,*56
1486350091.83,33345,9.88,72468.8,-7.97,-35.29,-36.37,0,*57
1486350093.08,33346,9.88,72468.5,-7.97,-35.23,-36.37,0,*5E
1486350094.31,33347,9.88,72470.8,-7.95,-35.17,-36.31,0,*5C
1486350095.54,33348,9.88,72470.3,-7.97,-35.29,-36.37,0,*5A
1486350096.83,33349,9.81,72464.0,-7.99,-35.35,-36.25,0,*5B
1486350098.05,33350,9.88,72470.3,-7.97,-35.13,-36.01,0,*5F
1486350099.29,33351,9.88,72468.5,-7.97,-35.07,-36.01,0,*5B
1486350100.53,33352,9.88,72470.0,-7.97,-35.23,-36.01,0,*5E
1486350101.79,33353,9.88,72470.8,-7.97,-35.23,-36.13,0,*5C
1486350103.01,33354,9.88,72474.3,-7.97,-35.13,-36.01,0,*5B
1486350104.25,33355,9.88,72470.0,-7.99,-35.13,-36.01,0,*54
1486350105.49,33356,9.88,72468.5,-7.97,-35.01,-35.65,0,*5B
1486350106.73,33357,9.88,72470.0,-7.97,-35.13,-35.95,0,*56
1486350107.96,33358,9.88,72468.8,-7.97,-35.13,-35.83,0,*5E
1486350109.2,33359,9.88,72470.8,-7.97,-35.13,-36.13,0,*55
1486350110.41,33360,9.88,72474.3,-7.97,-35.13,-36.01,0,*5C
1486350111.67,33361,9.88,72472.3,-7.97,-35.23,-36.13,0,*5D
1486350112.93,33362,9.88,72474.3,-7.99,-35.35,-36.07,0,*52
1486350114.19,33363,9.88,72466.5,-7.99,-35.35,-36.19,0,*5C
1486350115.42,33364,9.88,72470.3,-7.99,-35.29,-36.07,0,*59
1486350116.66,33365,9.88,72468.8,-7.99,-35.29,-36.19,0,*57
1486350117.92,33366,9.88,72474.3,-7.99,-35.35,-36.19,0,*59
1486350119.16,33367,9.88,72468.3,-7.99,-35.29,-36.07,0,*5A
1486350120.38,33368,9.88,72474.5,-8.01,-35.29,-35.89,0,*5E
1486350121.63,33369,9.88,72472.5,-7.99,-35.17,-35.89,0,*5C
1486350122.89,33370,9.88,72472.5,-7.99,-35.13,-35.83,0,*5A
1486350124.13,33371,9.88,72474.8,-7.99,-35.13,-35.71,0,*56
1486350125.4,33372,9.88,72476.8,-7.99,-35.13,-35.83,0,*58
1486350126.66,33373,9.88,72476.3,-7.97,-35.23,-35.95,0,*53
1486350127.93,33374,9.88,72474.8,-7.95,-35.17,-35.95,0,*51
1486350129.19,33375,9.88,72472.3,-7.99,-35.17,-35.83,0,*5B
1486350130.46,33376,9.88,72470.3,-7.99,-34.77,-35.53,0,*52
1486350131.7,33377,9.88,72470.3,-7.99,-35.13,-35.71,0,*50
1486350132.96,33378,9.88,72468.5,-7.99,-35.13,-35.83,0,*52
1486350134.23,33379,9.81,72464.3,-7.99,-35.17,-35.83,0,*57
1486350135.48,33380,9.88,72470.0,-7.99,-35.29,-36.01,0,*55
1486350136.73,33381,9.88,72466.3,-7.99,-35.53,-36.19,0,*50
1486350137.98,33382,9.88,72464.0,-7.99,-35.29,-36.01,0,*57
1486350139.19,33383,9.88,72466.0,-8.01,-35.17,-36.01,0,*55
1486350140.44,33384,9.88,72470.3,-7.99,-35.29,-36.01,0,*51
1486350141.69,33385,9.88,72468.3,-7.99,-35.29,-36.01,0,*50
1486350142.93,33386,9.88,72470.5,-7.99,-35.29,-36.07,0,*55
1486350144.16,33387,9.88,72468.8,-7.99,-35.47,-36.07,0,*5C
1486350145.42,33388,9.81,72472.0,-7.99,-35.35,-36.07,0,*56
1486350146.66,33389,9.88,72470.3,-7.99,-35.17,-35.71,0,*55
1486350147.92,33390,9.88,72470.3,-7.99,-35.17,-35.83,0,*50
1486350149.17,33391,9.88,72468.8,-7.99,-35.29,-36.01,0,*55
1486350150.4,33392,9.88,72468.8,-7.99,-35.47,-36.19,0,*57
1486350151.64,33393,9.88,72466.8,-7.99,-35.47,-36.19,0,*56
1486350152.93,33394,9.88,72464.0,-7.99,-35.65,-36.25,0,*5E
1486350154.14,33395,9.88,72464.5,-8.01,-35.71,-36.43,0,*54
1486350155.37,33396,9.88,72466.5,-7.99,-35.47,-36.07,0,*5C
1486350156.58,33397,9.88,72474.5,-8.01,-35.47,-36.19,0,*5C
1486350157.81,33398,9.88,72472.0,-8.01,-35.65,-36.43,0,*5C
1486350159.07,33399,9.88,72472.3,-8.01,-35.53,-36.25,0,*58
1486350160.31,33400,9.88,72474.5,-8.01,-35.35,-35.89,0,*5A
1486350161.52,33401,9.88,72476.3,-8.01,-35.47,-36.07,0,*5B
1486350162.73,33402,9.88,72474.8,-8.01,-35.47,-36.07,0,*58
1486350163.94,33403,9.88,72472.5,-8.01,-35.47,-36.19,0,*56
1486350165.16,33404,9.88,72474.0,-8.01,-35.53,-36.19,0,*54
1486350166.43,33405,9.88,72480.0,-8.01,-35.35,-35.83,0,*55
1486350167.67,33406,9.88,72478.5,-8.01,-35.35,-35.89,0,*5C
1486350168.88,33407,9.88,72474.5,-8.01,-35.47,-36.07,0,*5D
1486350170.09,33408,9.81,72474.3,-8.01,-35.17,-35.71,0,*55
1486350171.31,33409,9.88,72478.3,-8.01,-35.47,-35.89,0,*56
1486350172.55,33410,9.88,72476.5,-7.99,-35.17,-35.89,0,*55
1486350173.77,33411,9.88,72478.3,-8.01,-35.29,-35.71,0,*50
1486350175.0,33412,9.81,72478.8,-7.99,-35.13,-35.71,0,*54
1486350176.29,33413,9.88,72480.5,-7.99,-35.07,-35.65,0,*55
1486350177.56,33414,9.88,72482.0,-8.01,-35.07,-35.53,0,*59
1486350178.82,33415,9.88,72482.3,-8.01,-35.07,-35.53,0,*58
1486350180.12,33416,9.88,72480.8,-7.99,-35.07,-35.65,0,*50
1486350181.38,33417,9.88,72484.0,-8.01,-34.95,-35.65,0,*55
1486350182.64,33418,9.88,72482.5,-8.01,-35.07,-35.65,0,*50
1486350183.92,33419,9.88,72484.0,-7.99,-34.95,-35.47,0,*55
1486350185.17,33420,9.88,72480.0,-7.99,-35.13,-35.65,0,*50
1486350186.41,33421,9.88,72476.0,-7.99,-35.13,-35.71,0,*54
1486350187.65,33422,9.88,72474.5,-7.99,-35.13,-35.71,0,*57
1486350188.88,33423,9.88,72476.8,-7.99,-35.13,-35.71,0,*56
1486350190.15,33424,9.88,72474.8,-7.99,-35.13,-35.83,0,*5C
1486350191.41,33425,9.88,72474.3,-7.99,-35.35,-36.07,0,*56
1486350192.64,33426,9.88,72474.3,-7.99,-35.47,-36.07,0,*50
1486350193.9,33427,9.88,72478.3,-7.99,-35.65,-36.07,0,*51
1486350195.16,33428,9.88,72472.5,-7.99,-35.65,-36.19,0,*51
1486350196.4,33429,9.88,72478.3,-7.99,-35.47,-36.01,0,*59
1486350197.65,33430,9.88,72478.5,-7.99,-35.47,-36.01,0,*51
1486350198.9,33431,9.88,72478.0,-7.99,-35.65,-36.19,0,*59
1486350200.16,33432,9.88,72478.0,-7.99,-35.53,-36.01,0,*56
1486350201.42,33433,9.88,72480.5,-7.99,-35.65,-36.19,0,*5B
1486350202.68,33434,9.88,72482.8,-7.99,-35.53,-35.89,0,*53
1486350203.95,33435,9.88,72482.3,-7.99,-35.65,-36.01,0,*54
1486350205.21,33436,9.88,72480.5,-7.99,-35.53,-35.89,0,*51
1486350206.47,33437,9.88,72476.3,-7.99,-35.13,-35.65,0,*56
1486350207.71,33438,9.88,72476.5,-7.97,-35.07,-35.59,0,*5D
1486350208.92,33439,9.88,72474.0,-8.01,-35.13,-35.47,0,*56
1486350210.18,33440,9.88,72474.0,-7.99,-35.13,-35.65,0,*56
1486350211.42,33441,9.88,72472.5,-7.97,-35.07,-35.47,0,*5C
1486350212.68,33442,9.88,72474.8,-7.95,-35.17,-35.53,0,*59
1486350213.96,33443,9.88,72476.0,-7.95,-35.07,-35.53,0,*59
1486350215.18,33444,9.88,72472.0,-7.97,-35.01,-35.47,0,*5F
1486350216.44,33445,9.88,72468.5,-7.95,-35.17,-35.53,0,*5E
1486350217.68,33446,9.88,72460.3,-7.95,-35.53,-36.07,0,*5F
1486350218.97,33447,9.88,72460.8,-7.95,-35.41,-35.95,0,*55
1486350220.19,33448,9.88,72466.3,-7.97,-35.65,-36.19,0,*59
1486350221.4,33449,9.88,72468.8,-7.97,-35.77,-36.19,0,*5B
1486350222.64,33450,9.88,72468.3,-7.97,-35.65,-36.01,0,*59
1486350223.87,33451,9.88,72468.5,-7.97,-35.83,-36.19,0,*59
1486350225.13,33452,9.88,72470.5,-7.97,-35.95,-36.37,0,*51
1486350226.39,33453,9.88,72478.8,-7.97,-35.95,-36.37,0,*50
1486350227.62,33454,9.88,72478.3,-7.97,-35.83,-36.19,0,*5C
1486350228.83,33455,9.88,72478.5,-7.97,-35.77,-36.07,0,*59
1486350230.09,33456,9.81,72476.5,-7.97,-35.95,-36.37,0,*55
1486350231.36,33457,9.88,72478.3,-7.99,-35.83,-36.43,0,*5E
1486350232.61,33458,9.88,72480.8,-7.97,-35.83,-36.37,0,*5C
1486350233.85,33459,9.88,72482.5,-7.97,-35.95,-36.19,0,*56
1486350235.1,33460,9.88,72482.0,-7.97,-36.13,-36.37,0,*5D
1486350236.34,33461,9.88,72482.3,-8.01,-36.07,-36.49,0,*50
1486350237.6,33462,9.88,72484.5,-7.99,-35.89,-36.25,0,*52
1486350238.84,33463,9.88,72482.3,-7.99,-36.01,-36.43,0,*50
1486350240.11,33464,9.88,72484.8,-7.99,-35.53,-36.01,0,*55
1486350241.37,33465,9.88,72482.0,-7.99,-35.47,-35.83,0,*58
1486350242.62,33466,9.88,72482.0,-7.99,-35.47,-35.89,0,*51
1486350243.89,33467,9.88,72484.0,-7.99,-35.65,-35.89,0,*50
1486350245.15,33468,9.88,72486.0,-7.99,-35.53,-35.89,0,*5A
1486350246.42,33469,9.88,72482.5,-7.99,-35.53,-35.89,0,*5B
1486350247.67,33470,9.88,72484.3,-7.99,-35.53,-36.07,0,*56
1486350248.88,33471,9.88,72484.5,-7.97,-35.59,-36.01,0,*55
1486350250.1,33472,9.88,72482.0,-7.97,-35.47,-35.77,0,*5B
1486350251.35,33473,9.88,72478.8,-7.97,-35.41,-35.65,0,*5F
1486350252.58,33474,9.88,72480.3,-7.97,-35.29,-35.65,0,*56
1486350253.87,33475,9.88,72480.3,-7.95,-35.07,-35.53,0,*5C
1486350255.16,33476,9.88,72478.3,-7.95,-35.07,-35.41,0,*5C
1486350256.41,33477,9.88,72474.3,-7.95,-35.53,-35.77,0,*59
1486350257.68,33478,9.88,72474.3,-7.95,-35.71,-35.95,0,*5A
1486350258.9,33479,9.88,72474.5,-7.95,-35.59,-36.07,0,*59
1486350260.17,33480,9.88,72476.5,-7.95,-35.59,-35.95,0,*57
1486350261.43,33481,9.88,72472.3,-7.97,-35.65,-35.95,0,*5B
1486350262.66,33482,9.88,72478.5,-7.95,-35.71,-36.07,0,*57
1486350263.89,33483,9.81,72474.8,-7.97,-35.77,-36.13,0,*57
1486350265.16,33484,9.88,72478.5,-7.95,-35.59,-35.95,0,*53
1486350266.39,33485,9.88,72476.3,-7.97,-35.95,-36.43,0,*58
1486350267.61,33486,9.88,72474.5,-7.97,-36.19,-36.55,0,*5B
1486350268.86,33487,9.88,72476.8,-7.95,-36.19,-36.49,0,*55
1486350270.12,33488,9.88,72474.8,-7.97,-36.13,-36.61,0,*58
1486350271.35,33489,9.88,72474.5,-7.95,-36.19,-36.55,0,*56
1486350272.59,33490,9.88,72478.3,-7.97,-36.25,-36.73,0,*57
1486350273.86,33491,9.88,72474.3,-7.97,-36.25,-36.61,0,*55
1486350275.09,33492,9.88,72474.8,-7.97,-36.13,-36.55,0,*54
1486350276.31,33493,9.88,72478.8,-7.97,-36.19,-36.55,0,*5F
1486350277.51,33494,9.88,72476.5,-7.97,-36.19,-36.43,0,*5F
1486350278.75,33495,9.88,72478.5,-7.97,-36.13,-36.43,0,*54
1486350280.01,33496,9.88,72480.3,-7.99,-36.19,-36.61,0,*53
1486350281.27,33497,9.88,72476.0,-7.99,-36.19,-36.49,0,*58
1486350282.53,33498,9.88,72482.0,-7.99,-36.19,-36.49,0,*57
1486350283.8,33499,9.88,72474.3,-7.99,-36.19,-36.25,0,*5C
1486350285.04,33500,9.88,72472.3,-7.99,-36.01,-36.43,0,*54
1486350286.3,33501,9.88,72474.8,-7.99,-36.19,-36.49,0,*56
1486350287.56,33502,9.88,72474.3,-7.99,-36.19,-36.49,0,*55
1486350288.79,33503,9.88,72478.5,-8.01,-36.19,-36.49,0,*5A
1486350290.05,33504,9.88,72480.3,-7.99,-36.19,-36.49,0,*53
1486350291.28,33505,9.88,72480.5,-8.01,-36.19,-36.61,0,*56
1486350292.55,33506,9.88,72482.8,-7.99,-36.07,-36.25,0,*54
1486350293.8,33507,9.88,72480.3,-7.99,-35.89,-36.01,0,*56
1486350295.01,33508,9.88,72478.3,-8.01,-36.19,-36.43,0,*5B
1486350296.3,33509,9.81,72474.8,-7.99,-36.25,-36.61,0,*5B
1486350297.52,33510,9.88,72478.0,-8.01,-36.31,-36.67,0,*5E
1486350298.76,33511,9.88,72478.8,-8.01,-36.25,-36.67,0,*5A
1486350300.0,33512,9.88,72480.0,-8.01,-36.31,-36.61,0,*5A
1486350301.26,33513,9.81,72478.3,-7.99,-36.31,-36.61,0,*55
1486350302.5,33514,9.88,72482.5,-8.01,-36.31,-36.61,0,*5C
1486350303.76,33515,9.88,72484.8,-8.01,-36.25,-36.61,0,*58
1486350305.01,33516,9.88,72486.5,-8.01,-36.25,-36.43,0,*5B
1486350306.22,33517,9.88,72482.5,-8.01,-36.19,-36.43,0,*55
1486350307.45,33518,9.88,72482.0,-8.01,-36.43,-36.61,0,*55
1486350308.72,33519,9.88,72480.3,-8.01,-36.25,-36.61,0,*54
1486350309.98,33520,9.88,72480.0,-8.01,-36.25,-36.49,0,*54
1486350311.22,33521,9.88,72480.5,-7.99,-36.19,-36.43,0,*5E
1486350312.43,33522,9.88,72476.3,-8.01,-36.19,-36.43,0,*53
1486350313.67,33523,9.88,72478.8,-8.01,-36.25,-36.43,0,*5D
1486350314.91,33524,9.88,72482.3,-8.01,-36.07,-36.25,0,*5A
1486350316.15,33525,9.88,72482.3,-8.01,-36.31,-36.61,0,*5E
1486350317.39,33526,9.88,72482.3,-8.01,-36.25,-36.43,0,*58
1486350318.63,33527,9.88,72484.0,-8.01,-36.25,-36.43,0,*59
1486350319.84,33528,9.88,72480.3,-8.01,-36.07,-36.19,0,*59
1486350321.07,33529,9.88,72476.8,-8.01,-35.65,-35.71,0,*52
1486350322.31,33530,9.88,72478.3,-7.99,-35.29,-35.47,0,*59
1486350323.55,33531,9.88,72470.8,-8.01,-35.47,-35.53,0,*5B
1486350324.83,33532,9.88,72472.5,-7.99,-35.53,-35.65,0,*56
1486350326.07,33533,9.88,72476.5,-8.01,-35.71,-35.83,0,*51
1486350327.28,33534,9.88,72476.8,-8.01,-36.01,-36.07,0,*5D
1486350328.52,33535,9.88,72476.0,-7.99,-36.07,-36.19,0,*5B
1486350329.78,33536,9.88,72478.0,-7.99,-36.19,-36.25,0,*58
1486350330.99,33537,9.88,72480.5,-8.01,-36.07,-36.07,0,*58
1486350332.2,33538,9.81,72476.0,-8.01,-35.71,-35.71,0,*57
1486350333.45,33539,9.88,72478.8,-7.99,-36.01,-35.89,0,*5B
1486350334.7,33540,9.81,72476.3,-7.99,-36.01,-36.01,0,*56
1486350335.93,33541,9.88,72482.0,-7.99,-35.71,-35.71,0,*57
1486350337.17,33542,9.88,72482.3,-7.99,-35.71,-35.71,0,*54
1486350338.42,33543,9.88,72486.5,-7.97,-35.65,-35.65,0,*5B
1486350339.64,33544,9.88,72482.3,-7.97,-35.77,-35.77,0,*5C
1486350340.88,33545,9.88,72480.0,-7.97,-35.65,-35.77,0,*5E
1486350342.11,33546,9.88,72480.8,-7.97,-35.77,-35.65,0,*5D
1486350343.33,33547,9.88,72480.3,-7.97,-35.77,-35.77,0,*5F
1486350344.57,33548,9.88,72480.5,-7.95,-35.77,-35.77,0,*52
1486350345.84,33549,9.88,72480.3,-7.97,-35.83,-35.83,0,*51
1486350347.11,33550,9.88,72480.0,-7.97,-35.95,-35.95,0,*59
1486350348.38,33551,9.88,72482.3,-7.95,-35.95,-35.77,0,*56
1486350349.61,33552,9.88,72480.5,-7.97,-36.13,-36.01,0,*58
1486350350.88,33553,9.88,72480.8,-7.93,-35.95,-35.95,0,*5E
1486350352.12,33554,9.88,72482.8,-7.95,-35.89,-35.89,0,*5F
1486350353.39,33555,9.88,72476.0,-7.95,-36.07,-35.95,0,*56
1486350354.65,33556,9.88,72478.8,-7.95,-35.95,-36.07,0,*55
1486350355.88,33557,9.88,72474.8,-7.95,-36.07,-36.31,0,*59
1486350357.14,33558,9.88,72474.0,-7.95,-36.31,-36.37,0,*55
1486350358.39,33559,9.88,72470.8,-7.95,-36.31,-36.37,0,*54
1486350359.64,33560,9.88,72474.8,-7.95,-36.31,-36.37,0,*5E
1486350360.92,33561,9.88,72472.8,-7.95,-36.13,-36.37,0,*5F
1486350362.17,33562,9.88,72474.0,-7.95,-36.31,-36.37,0,*5C
1486350363.39,33563,9.88,72472.5,-7.97,-36.55,-36.73,0,*5D
1486350364.65,33564,9.88,72474.3,-7.95,-36.49,-36.67,0,*50
1486350365.89,33565,9.88,72472.3,-7.95,-36.55,-36.67,0,*5C
1486350367.12,33566,9.88,72474.0,-7.95,-36.55,-36.67,0,*5F
1486350368.36,33567,9.88,72478.0,-7.97,-36.61,-36.73,0,*5E
1486350369.6,33568,9.88,72476.5,-7.95,-36.67,-36.55,0,*51
1486350370.84,33569,9.88,72476.5,-7.97,-36.55,-36.61,0,*54
1486350372.06,33570,9.88,72474.0,-7.97,-36.55,-36.55,0,*5B
1486350373.27,33571,9.88,72474.8,-7.97,-36.43,-36.55,0,*5D
1486350374.51,33572,9.88,72474.8,-7.97,-36.55,-36.61,0,*5E
1486350375.73,33573,9.88,72472.3,-7.97,-36.55,-36.55,0,*58
1486350376.95,33574,9.88,72476.3,-7.97,-36.55,-36.55,0,*5F
1486350378.23,33575,9.88,72472.3,-7.99,-36.61,-36.61,0,*50
1486350379.5,33576,9.88,72474.3,-7.99,-36.61,-36.67,0,*55
1486350380.79,33577,9.88,72476.3,-7.99,-36.79,-36.79,0,*52
1486350382.07,33578,9.88,72474.3,-7.99,-36.79,-36.79,0,*5D
1486350383.33,33579,9.88,72480.5,-7.99,-36.67,-36.79,0,*53
1486350384.6,33580,9.88,72482.5,-7.99,-36.79,-36.67,0,*55
1486350385.88,33581,9.88,72478.3,-7.99,-36.61,-36.61,0,*5B
1486350387.15,33582,9.81,72476.3,-7.99,-36.43,-36.49,0,*52
1486350388.39,33583,9.88,72482.8,-7.99,-36.31,-36.43,0,*5C
1486350389.68,33584,9.88,72478.8,-7.99,-36.61,-36.61,0,*5E
1486350390.92,33585,9.88,72480.5,-7.99,-36.67,-36.67,0,*5F
1486350392.19,33586,9.88,72482.3,-7.99,-36.79,-36.67,0,*53
1486350393.45,33587,9.88,72480.3,-7.99,-36.67,-36.79,0,*52
1486350394.74,33588,9.88,72478.5,-7.99,-36.49,-36.49,0,*52
1486350395.98,33589,9.88,72476.5,-7.99,-36.43,-36.43,0,*53
1486350397.27,33590,9.88,72476.3,-7.99,-36.61,-36.49,0,*51
1486350398.53,33591,9.81,72478.5,-7.99,-36.67,-36.61,0,*5C
1486350399.8,33592,9.88,72476.3,-7.99,-36.61,-36.67,0,*5F
1486350401.04,33593,9.81,72476.3,-8.01,-36.79,-36.67,0,*59
1486350402.33,33594,9.88,72476.8,-7.99,-36.61,-36.61,0,*5F
1486350403.56,33595,9.88,72476.5,-8.01,-36.49,-36.43,0,*5A
1486350404.81,33596,9.88,72474.3,-7.99,-36.43,-36.43,0,*5D
1486350406.07,33597,9.88,72474.0,-7.99,-36.67,-36.79,0,*53
1486350407.33,33598,9.88,72474.8,-8.01,-36.61,-36.49,0,*57
1486350408.62,33599,9.88,72472.3,-7.99,-36.49,-36.61,0,*58
1486350409.85,33600,9.88,72468.5,-8.01,-36.67,-36.49,0,*53
1486350411.12,33601,9.88,72470.8,-7.99,-36.49,-36.43,0,*5A
1486350412.39,33602,9.81,72470.5,-7.99,-36.85,-36.61,0,*59
1486350413.62,33603,9.88,72474.8,-8.01,-36.97,-36.79,0,*5C
1486350414.89,33604,9.88,72476.8,-7.99,-36.79,-36.67,0,*5A
1486350416.15,33605,9.88,72478.3,-7.99,-36.67,-36.49,0,*58
1486350417.39,33606,9.88,72478.5,-8.01,-36.67,-36.49,0,*55
1486350418.65,33607,9.88,72478.0,-7.99,-36.67,-36.61,0,*50
1486350419.89,33608,9.88,72474.3,-8.01,-36.85,-36.61,0,*5D
1486350421.13,33609,9.88,72478.8,-8.01,-36.97,-36.79,0,*56
1486350422.34,33610,9.81,72474.5,-8.01,-36.97,-36.85,0,*5D
1486350423.58,33611,9.88,72480.3,-8.01,-36.67,-36.61,0,*59
1486350424.84,33612,9.88,72478.0,-7.99,-36.79,-36.67,0,*5D
1486350426.08,33613,9.88,72476.8,-8.01,-36.85,-36.79,0,*5E
1486350427.3,33614,9.88,72476.3,-8.01,-36.85,-36.67,0,*56
1486350428.52,33615,9.81,72472.0,-8.01,-36.85,-36.67,0,*57
1486350429.78,33616,9.88,72476.5,-8.03,-36.91,-36.73,0,*56
1486350431.06,33617,9.88,72472.5,-8.03,-37.09,-36.91,0,*5B
1486350432.3,33618,9.81,72472.8,-8.01,-37.21,-36.85,0,*59
1486350433.56,33619,9.88,72474.5,-8.03,-37.09,-36.85,0,*50
1486350434.8,33620,9.81,72470.5,-8.03,-37.03,-36.73,0,*59
1486350436.06,33621,9.88,72472.5,-8.03,-36.91,-36.73,0,*52
1486350437.33,33622,9.81,72468.3,-8.03,-36.91,-36.73,0,*51
1486350438.61,33623,9.88,72474.8,-8.03,-37.09,-36.91,0,*5C
1486350439.85,33624,9.81,72472.5,-8.03,-37.03,-36.73,0,*5D
1486350441.08,33625,9.88,72474.5,-8.03,-37.03,-36.85,0,*55
1486350442.34,33626,9.88,72472.0,-8.03,-37.21,-36.85,0,*56
1486350443.6,33627,9.88,72476.3,-8.03,-37.09,-36.85,0,*5D
1486350444.89,33628,9.88,72478.8,-8.03,-37.21,-36.91,0,*5D
1486350446.12,33629,9.88,72476.0,-8.05,-37.27,-36.91,0,*5C
1486350447.39,33630,9.81,72472.8,-8.05,-37.21,-36.91,0,*52
1486350448.67,33631,9.88,72476.5,-8.03,-37.09,-36.91,0,*5F
1486350449.89,33632,9.88,72480.5,-8.05,-36.85,-36.55,0,*57
1486350451.13,33633,9.81,72474.0,-8.03,-37.03,-36.67,0,*5E
1486350452.37,33634,9.88,72472.3,-8.05,-36.91,-36.73,0,*50
1486350453.61,33635,9.88,72474.8,-8.05,-36.91,-36.73,0,*51
1486350454.82,33636,9.81,72474.3,-8.05,-37.03,-36.67,0,*5D
1486350456.03,33637,9.88,72480.8,-8.05,-37.03,-36.73,0,*59
1486350457.25,33638,9.81,72476.8,-8.05,-36.67,-36.31,0,*53
1486350458.47,33639,9.88,72482.3,-8.05,-36.31,-35.89,0,*51
1486350459.71,33640,9.88,72480.5,-8.05,-36.31,-35.95,0,*52
1486350460.93,33641,9.88,72480.0,-8.05,-36.31,-35.77,0,*5F
1486350462.17,33642,9.81,72472.5,-8.03,-36.31,-35.77,0,*5A
1486350463.41,33643,9.88,72474.8,-8.03,-36.31,-35.77,0,*5B
1486350464.67,33644,9.81,72474.5,-8.03,-36.13,-35.59,0,*50
1486350465.92,33645,9.88,72480.3,-8.01,-36.25,-35.89,0,*5B
1486350467.13,33646,9.88,72480.8,-8.01,-36.67,-36.19,0,*54
1486350468.37,33647,9.81,72476.3,-8.01,-36.49,-36.07,0,*56
1486350469.6,33648,9.88,72476.3,-8.01,-36.61,-36.19,0,*5C
1486350470.84,33649,9.88,72482.3,-8.01,-36.61,-36.07,0,*52
1486350472.08,33650,9.81,72482.0,-8.01,-36.61,-35.89,0,*5F
1486350473.35,33651,9.88,72480.0,-7.99,-36.49,-36.01,0,*59
1486350474.59,33652,9.88,72478.8,-7.99,-36.31,-35.71,0,*51
1486350475.86,33653,9.88,72482.8,-7.99,-36.25,-35.71,0,*55
1486350477.12,33654,9.88,72482.8,-7.99,-36.61,-36.07,0,*50
1486350478.35,33655,9.88,72478.8,-8.01,-36.79,-36.19,0,*59
1486350479.57,33656,9.88,72478.5,-8.01,-36.67,-36.43,0,*5A
1486350480.82,33657,9.88,72476.0,-7.99,-36.43,-35.89,0,*56
1486350482.05,33658,9.88,72472.3,-8.01,-36.49,-36.07,0,*58
1486350483.32,33659,9.88,72474.0,-7.99,-36.97,-36.61,0,*54
1486350484.56,33660,9.81,72466.5,-8.01,-36.97,-36.49,0,*5A
1486350485.82,33661,9.81,72458.5,-7.99,-37.03,-36.61,0,*53
1486350487.04,33662,9.81,72462.0,-8.01,-37.15,-36.67,0,*5F
1486350488.28,33663,9.88,72470.0,-7.99,-37.15,-36.67,0,*50
1486350489.52,33664,9.88,72468.5,-7.99,-37.15,-36.67,0,*57
1486350490.74,33665,9.88,72472.0,-8.01,-37.15,-36.67,0,*58
1486350491.98,33666,9.88,72466.0,-8.01,-37.03,-36.25,0,*5A
1486350493.24,33667,9.88,72466.8,-7.99,-36.79,-36.07,0,*59
1486350494.48,33668,9.88,72466.0,-7.99,-36.85,-36.19,0,*5A
1486350495.72,33669,9.88,72468.3,-7.99,-36.85,-36.19,0,*5B
1486350496.98,33670,9.88,72476.5,-7.99,-37.15,-36.61,0,*54
1486350498.25,33671,9.81,72476.3,-8.01,-37.21,-36.49,0,*56
1486350499.54,33672,9.88,72476.3,-7.99,-37.21,-36.49,0,*5B
1486350500.84,33673,9.81,72474.8,-7.99,-37.21,-36.79,0,*59
1486350502.08,33674,9.81,72472.8,-7.99,-37.33,-36.67,0,*52
1486350503.29,33675,9.81,72474.0,-8.01,-37.15,-36.67,0,*59
1486350504.54,33676,9.88,72470.8,-8.01,-37.21,-36.67,0,*5D
1486350505.77,33677,9.81,72470.5,-8.01,-37.33,-36.79,0,*50
1486350507.02,33678,9.81,72470.0,-8.01,-37.21,-36.67,0,*53